Погода в Хвойном

Россия / Амурская область     54°35′50″N   127°50′02″E
темп.,
°C
ветер,
м/с
пор.,
м/с
влажн.,
%
обл.,
%
осадки,
мм/ч
давл.,
гПа
погр.,
м
13 апреля, вт
вт1300:00−16сз468578 0.0 101945
03:00−19сз3393100 0.0 101931
06:00−21сз3494100 0.0 101832
09:00−13сз45783 0.0 1016229
12:00−6ссз455571 0.0 10131219
15:00−4с3459100 0.1 10111171
18:00−5ссз2269100 0.1 101012
21:00−10с3390100 0.3 101139
14 апреля, ср
ср1400:00−17сз4391100 0.0 101125
03:00−20зсз339794 0.0 101120
06:00−23сз33985 0.0 101220
09:00−13сз45792 0.0 1010177
12:00−6зсз23660 0.0 1008425
15:00−3з235133 0.0 1007799
18:00−5юз227176 0.0 100711
21:00−13зсз33907 0.0 100913
15 апреля, чт
чт1500:00−16зсз33925 0.0 101022
03:00−18сз339846 0.0 101010
06:00−20ссз229985 0.0 101210
09:00−13всв01878 0.0 101267
12:00−9юв218642 0.0 1012128
15:00−4в237959 0.0 1012144
18:00−6вюв2284100 0.0 101310
21:00−10вюв2294100 0.0 101510
16 апреля, пт
пт1600:00−13всв2295100 0.0 101615
03:00−15ссз11100100 0.0 10169
06:00−13зсз1297100 0.0 101618
09:00−8ссз1287100 0.0 1014144
12:00−3всв2475100 0.0 1012416
15:00−1св4777100 0.1 1011781
18:00−1св4894100 0.4 1012565
21:00−4с3495100 0.4 101235
17 апреля, сб
сб1700:00−3с379799 0.8 1012139
03:00−7ссв119999 1.3 101210
06:00
09:00−2св119043 0.8 1013203
12:00−1ююв118768 0.0 1013290
15:00−1в118462 0.0 1013137
18:00−1вюв228877 0.0 101337
21:00−7вюв2210047 0.0 101510